Theta_e
307 299 297 297 299 301 302 302 302 302 301 300 299 298 297 297 298 301 299 299 300 298 298 299 300 300 301 303 301 300 300 300 300 298 298 298 298 298 298 298 298 298 298 300 299 300 300 300 300 300 300 301 301 301 303 304 304 304 305 305 303 304 305 305 304 303 302 300 299 299 298 297 297 297 298 298 298 298 298 299 299 299 298 299 299 300
303 297 298 301 302 303 303 304 302 301 300 299 298 297 296 298 295 300 299 298 300 297 297 300 299 299 300 302 302 300 298 298 299 298 299 298 298 298 298 298 298 298 299 299 299 299 300 300 300 300 299 299 300 299 301 302 302 303 304 303 304 304 304 302 301 300 300 300 300 298 296 296 296 296 296 296 297 297 298 297 298 298 298 298 298 298
297 296 300 303 305 303 302 302 302 300 299 299 297 297 296 297 300 301 299 298 298 296 296 299 297 298 300 302 302 299 298 300 300 300 299 298 297 297 297 298 297 297 298 298 298 298 300 299 299 299 298 298 298 298 299 301 302 302 302 302 302 302 302 302 301 300 298 298 298 297 296 296 295 296 296 296 296 296 295 296 296 296 296 296 296 297
295 298 302 304 303 301 299 300 299 299 299 297 297 295 293 298 296 294 297 297 297 297 297 298 295 297 301 303 301 300 299 298 298 297 298 298 297 297 297 297 297 297 297 297 297 297 298 299 298 298 298 298 298 298 299 299 300 301 301 301 301 300 299 298 298 298 297 297 298 298 297 297 296 294 295 295 295 294 294 294 294 295 295 295 295 295
298 301 304 304 302 301 299 298 298 297 295 298 298 297 296 297 298 296 297 297 297 298 298 297 295 296 299 299 297 296 296 295 295 295 295 296 297 297 297 296 297 297 297 296 296 297 297 297 297 297 296 297 296 297 298 298 299 299 300 300 300 299 298 298 298 298 298 297 296 296 296 296 295 295 294 293 292 292 292 292 293 293 294 294 294 294
299 302 303 301 301 300 299 297 297 298 295 297 299 298 298 299 297 298 299 296 295 296 296 296 290 293 300 301 300 295 294 293 294 294 294 294 294 294 294 295 295 296 297 297 297 296 297 297 296 296 296 296 296 296 297 298 299 300 299 299 299 299 300 299 299 299 299 298 297 296 295 293 293 291 291 290 289 290 290 290 292 293 293 293 293 294
300 301 301 300 299 299 299 298 299 299 296 295 297 301 299 298 298 298 297 295 291 290 294 296 290 289 297 296 298 296 294 294 293 293 294 294 294 294 294 295 295 295 294 295 295 296 296 296 296 296 295 296 295 295 297 298 298 299 299 299 299 298 298 299 299 300 300 299 297 296 295 294 292 290 290 291 291 291 291 292 291 292 293 293 293 293
299 298 300 301 299 299 297 295 299 299 296 294 300 301 300 299 297 297 297 296 294 299 297 294 295 289 289 297 299 298 295 295 293 293 294 294 294 293 294 295 295 295 295 295 295 295 296 296 296 294 294 295 295 295 296 296 297 297 297 297 297 297 297 297 298 298 298 296 295 294 293 292 291 291 290 290 291 292 291 291 291 291 292 292 293 292
300 297 299 298 298 297 296 299 302 301 297 297 297 301 299 298 298 298 297 295 295 293 289 292 296 288 289 295 298 297 294 295 295 294 294 294 294 294 294 294 295 295 295 295 295 294 294 294 294 294 293 294 294 295 295 295 296 296 296 296 296 296 296 296 297 296 296 295 294 293 292 291 291 291 291 291 292 291 291 291 291 291 291 291 292 292
299 299 301 301 299 296 300 298 301 302 297 298 299 300 299 299 298 298 295 294 293 290 285 292 295 288 289 297 295 295 294 295 297 296 295 295 294 294 294 294 294 294 294 295 295 294 294 293 293 293 293 293 293 294 295 295 296 296 296 295 295 295 295 295 295 295 295 295 294 293 292 291 291 291 291 291 290 291 291 290 290 291 290 290 290 291
297 297 299 299 299 301 297 295 296 299 299 299 300 298 297 296 296 295 295 293 290 285 287 293 295 292 286 295 297 295 297 298 299 297 297 296 295 294 294 294 294 293 293 293 293 293 292 292 292 293 292 292 293 294 295 295 295 295 295 294 294 294 294 295 295 295 294 294 294 293 293 292 291 291 291 290 290 290 290 290 290 290 290 290 289 290
297 297 298 300 298 298 300 295 296 296 300 300 297 295 295 292 294 292 290 292 285 284 291 293 295 295 284 291 298 298 297 299 298 296 295 294 293 293 293 293 294 294 293 293 292 291 291 291 291 292 291 292 292 293 294 294 294 294 294 294 293 293 293 294 294 294 294 294 294 294 293 293 292 292 291 290 290 290 290 290 289 290 290 289 289 289
295 296 300 297 298 299 297 296 294 296 296 298 296 294 289 288 286 284 287 283 284 284 287 290 291 289 289 294 297 296 297 296 298 299 297 294 294 293 293 293 294 294 294 293 292 291 291 291 291 291 291 291 292 292 293 293 294 294 294 293 292 292 293 293 294 293 293 293 293 293 293 292 292 292 292 291 290 291 290 290 289 289 288 288 288 288
294 299 298 298 296 298 300 294 291 290 293 294 293 290 288 285 284 281 285 287 287 287 288 289 292 286 293 296 300 298 295 296 295 297 298 296 294 293 293 293 293 293 293 293 292 292 292 291 291 291 291 291 292 292 292 293 293 293 293 293 292 292 293 293 293 292 292 292 292 292 292 292 291 291 291 291 290 290 290 290 289 288 288 287 287 286
288 289 293 296 293 299 299 299 298 296 293 293 298 295 290 290 286 281 284 282 284 286 285 290 286 286 286 292 293 293 293 293 293 295 298 297 296 294 294 293 293 293 293 293 292 292 292 292 291 291 291 291 291 292 292 292 293 293 292 292 291 291 292 292 292 292 291 291 292 292 292 291 291 291 290 290 290 289 289 289 288 288 288 287 286 286
293 294 298 301 299 299 297 301 303 299 294 296 297 299 292 290 295 287 286 285 285 285 283 284 286 293 293 294 294 292 293 292 293 293 295 295 295 294 293 292 292 292 292 292 292 292 292 292 291 291 291 291 291 291 292 292 292 292 292 291 291 291 291 291 291 291 291 291 291 291 290 290 290 290 290 289 289 289 289 288 288 287 287 287 286 286
293 292 294 296 296 298 299 300 300 302 288 293 294 288 292 297 294 287 284 285 284 284 284 289 288 292 296 293 293 293 292 292 292 292 293 293 293 293 292 292 293 293 292 292 292 291 291 291 291 291 291 291 290 291 291 292 292 292 291 291 291 291 291 291 291 291 291 290 290 290 290 290 290 290 289 288 288 288 288 288 287 286 286 286 286 286
291 293 291 295 291 294 294 298 300 297 300 294 288 293 296 299 297 290 285 286 284 282 284 288 286 289 289 287 292 292 291 291 292 291 293 293 292 291 292 293 293 293 293 292 292 292 291 291 290 290 291 291 290 291 291 291 292 292 292 291 291 290 290 290 290 290 290 289 289 289 289 289 289 289 288 288 288 288 287 287 286 286 285 285 285 285
300 290 292 294 295 294 295 296 295 298 297 295 293 301 291 286 285 291 287 280 281 281 284 287 289 289 291 291 290 291 291 292 291 291 291 291 291 291 292 293 293 293 293 292 291 291 290 290 290 290 290 290 290 291 291 292 292 292 291 291 291 290 290 290 290 290 290 290 289 289 288 288 288 288 288 288 288 288 287 286 285 285 284 284 284 284
300 290 290 293 293 294 294 294 287 291 295 296 296 294 299 293 290 287 287 287 288 283 283 284 285 285 294 295 296 296 295 295 292 291 290 291 291 292 293 293 293 293 292 292 291 291 291 290 290 290 289 289 290 290 290 291 291 291 291 291 290 290 290 290 289 289 289 289 289 288 288 287 287 287 287 287 286 286 285 285 284 284 283 283 283 283
294 297 288 289 294 293 287 291 290 291 288 288 290 291 292 290 292 292 292 288 286 284 284 284 283 287 294 298 298 298 298 296 293 292 292 292 293 293 294 294 293 293 293 292 292 291 291 290 290 290 290 290 290 290 290 291 290 291 291 290 290 289 289 289 289 289 288 288 288 287 286 286 286 286 286 286 285 284 284 284 283 283 283 282 282 282
291 292 289 287 287 286 291 295 295 297 295 292 291 290 291 288 286 284 283 291 287 285 284 284 282 289 295 293 295 294 296 298 296 293 294 294 294 294 295 295 294 294 294 293 292 292 291 290 289 289 289 289 289 289 289 290 290 290 290 290 290 290 289 288 288 288 287 287 287 286 286 285 285 285 285 284 284 283 283 282 282 282 282 281 281 281
300 294 291 286 288 289 294 293 295 293 295 296 295 292 295 293 292 287 282 285 286 287 287 286 283 287 292 293 294 294 293 294 296 296 295 295 295 295 295 295 295 295 294 293 292 291 290 289 289 288 288 288 288 289 289 289 289 290 290 290 290 289 289 289 288 287 287 286 285 284 284 284 284 283 283 283 282 281 281 281 281 281 281 280 280 280
294 290 289 290 293 292 293 295 294 294 295 293 292 292 293 290 292 290 289 289 287 286 284 285 282 287 292 292 291 292 292 292 293 295 297 296 296 295 295 295 295 294 294 293 292 291 290 289 289 288 288 288 288 288 288 289 289 290 290 289 289 289 289 288 287 286 286 285 284 284 283 283 283 282 282 281 281 280 280 280 280 280 280 280 280 279
290 290 290 287 285 287 289 292 292 294 293 290 290 292 294 296 293 289 288 290 286 288 286 286 281 287 290 289 292 291 292 292 292 293 295 295 295 295 295 294 294 294 293 292 291 290 289 288 288 288 288 288 288 288 288 288 289 289 289 289 289 289 288 287 286 285 285 284 283 283 282 282 281 281 280 280 280 279 279 279 278 279 278 278 278 278
293 292 290 285 282 280 279 280 283 285 286 290 290 293 294 293 291 287 286 287 284 287 287 285 286 291 291 290 291 292 292 292 292 292 292 295 295 294 294 294 294 294 292 291 290 289 288 288 288 288 287 287 287 287 287 288 288 289 289 289 289 288 287 286 285 285 284 283 281 281 281 281 281 280 280 279 279 278 278 278 278 277 277 277 277 277
291 293 293 290 289 287 288 289 294 293 290 286 289 290 291 293 293 291 290 287 284 287 286 288 288 289 288 290 290 289 290 292 293 292 291 292 293 294 294 294 294 293 292 291 290 289 288 287 287 287 287 287 286 287 287 288 288 288 288 288 289 289 287 285 284 283 282 281 281 281 280 280 280 280 279 279 278 278 278 277 277 277 276 276 276 276
289 289 290 290 289 288 287 288 294 294 290 290 289 288 291 290 290 288 286 285 289 286 283 290 292 288 290 291 293 293 293 293 295 295 293 293 293 293 293 293 293 292 291 290 288 287 287 287 286 286 286 286 286 286 287 288 288 288 288 288 288 287 286 284 283 283 282 281 281 281 280 280 280 279 279 279 278 277 277 276 276 276 276 275 275 275
288 287 290 291 289 290 288 291 292 294 294 293 292 291 289 290 288 285 286 290 290 286 285 290 292 289 292 294 294 295 296 294 295 293 294 295 294 293 292 291 291 290 289 288 288 288 287 287 286 286 286 286 286 286 286 287 288 288 288 288 287 286 285 284 283 282 281 281 280 280 280 279 279 279 278 278 277 277 276 276 275 275 275 274 274 274
289 287 290 290 288 289 288 288 290 290 290 290 292 292 293 291 289 289 289 291 291 289 292 292 291 291 294 296 296 295 297 297 296 295 294 293 292 291 291 291 290 290 289 289 289 288 288 288 288 287 287 286 286 286 286 287 287 287 286 286 286 285 285 283 282 281 280 279 279 279 279 278 278 277 277 276 276 276 275 275 274 274 274 274 274 273
291 287 290 288 287 287 288 287 288 288 288 287 289 291 292 293 291 290 289 290 290 290 291 292 290 289 296 298 296 292 291 294 294 292 293 294 293 291 290 290 290 289 289 289 288 288 288 288 288 288 287 287 287 287 287 287 287 287 286 286 285 284 282 281 280 280 280 280 280 279 278 278 277 277 276 276 275 275 275 274 274 273 273 273 273 272
289 286 287 287 285 284 283 285 284 285 285 285 286 288 289 290 288 289 287 290 289 287 289 289 287 288 294 297 293 292 292 293 293 294 294 293 292 290 290 290 290 289 289 288 288 289 289 289 289 288 287 287 287 287 287 287 287 286 286 286 285 283 282 281 280 280 279 279 279 279 278 277 277 276 276 275 275 274 274 273 273 272 272 272 271 272
287 286 285 286 283 283 279 284 284 284 284 282 284 287 290 291 291 291 292 292 292 292 288 286 287 293 294 295 293 292 293 293 294 295 294 293 292 291 291 291 291 291 291 291 290 290 290 290 290 289 288 288 288 287 287 288 287 286 286 285 285 282 281 280 280 280 280 279 278 278 277 277 276 275 275 274 274 273 272 272 271 271 271 271 272 271
287 287 286 287 281 280 277 283 284 282 276 279 289 294 292 289 291 289 289 290 292 292 290 293 293 293 292 294 293 293 292 293 295 297 297 295 293 292 293 293 293 293 293 293 292 292 292 292 291 291 290 290 289 289 289 288 287 287 287 286 284 282 281 280 280 280 280 279 278 277 277 276 276 275 274 273 272 272 271 271 270 271 271 271 271 270
286 287 286 286 283 279 280 282 280 275 278 286 285 289 293 294 293 291 291 292 292 293 293 292 293 294 293 294 295 296 296 296 295 295 293 294 295 294 293 293 293 294 293 293 292 292 292 292 292 291 290 290 290 289 289 288 287 287 286 285 283 282 281 281 280 281 280 279 278 277 276 276 275 274 273 272 271 271 271 271 271 271 270 270 270 270
286 286 286 284 284 282 278 279 274 276 285 285 285 285 289 291 291 291 289 292 293 293 293 292 293 295 295 294 293 290 291 289 290 289 291 291 294 294 294 293 293 293 292 293 292 292 292 292 291 291 290 290 290 289 289 288 287 287 286 285 283 282 281 281 281 280 279 278 277 276 276 275 274 274 273 271 271 270 271 271 270 269 270 270 271 270
289 287 287 282 285 277 279 279 279 285 284 287 281 283 287 285 285 286 282 286 292 293 293 292 293 294 292 293 289 287 288 289 288 291 290 290 291 292 293 293 293 293 293 293 293 293 293 293 291 291 291 290 289 289 289 288 287 286 284 283 282 281 281 280 280 280 279 278 277 276 275 275 274 273 272 271 270 270 270 270 269 270 270 269 270 269
288 286 288 284 282 284 280 277 278 279 276 282 287 288 289 289 289 290 286 284 289 290 293 292 291 292 291 288 286 286 288 287 286 288 291 290 290 291 291 291 290 290 290 289 289 289 289 290 290 290 290 289 289 289 288 288 286 285 284 283 282 281 280 280 280 280 279 278 277 276 275 275 275 273 272 271 270 270 270 271 270 269 269 268 269 269
285 286 286 285 283 282 280 278 278 276 279 286 284 285 287 286 289 289 285 280 288 289 292 291 290 291 290 287 285 286 286 284 285 290 291 290 289 290 289 288 288 288 288 288 287 287 287 287 288 288 289 289 288 289 287 286 286 284 283 282 281 281 280 280 280 280 279 278 278 276 275 275 274 273 272 271 271 270 270 270 269 269 268 268 268 268
283 284 285 283 282 283 281 279 277 281 281 284 282 283 286 288 289 287 276 277 285 288 290 290 289 289 289 287 286 286 286 284 287 290 288 288 289 289 288 287 286 286 286 286 286 287 287 286 285 285 286 287 287 288 286 285 285 284 283 281 281 280 279 280 280 281 280 279 277 276 275 275 273 273 271 271 270 270 270 270 268 267 267 267 267 267
280 281 283 280 282 282 282 280 282 283 287 281 282 283 285 287 287 279 274 281 282 283 285 289 288 290 288 286 286 285 287 289 287 285 286 285 285 285 286 286 286 286 285 285 284 285 285 285 285 285 286 287 287 286 285 284 284 283 282 281 279 279 280 281 281 280 279 279 277 276 274 274 273 272 271 271 269 269 268 268 268 267 266 265 266 266
280 281 281 283 280 281 281 279 279 283 287 283 283 284 286 285 276 276 283 284 285 285 285 287 288 289 288 287 287 288 288 285 285 286 285 285 286 285 285 284 283 283 284 284 284 284 284 284 285 285 286 286 285 283 283 283 282 282 281 280 279 280 281 281 280 280 279 278 276 275 273 272 271 271 269 268 268 267 266 267 266 266 264 265 265 263
280 279 277 279 282 283 282 279 278 274 283 283 284 283 284 281 283 285 284 284 285 286 285 285 287 287 287 286 287 288 284 284 284 285 285 285 286 285 284 284 284 284 283 282 282 284 284 284 284 284 284 284 282 282 282 281 280 281 280 279 280 281 281 281 280 279 279 277 275 273 272 270 269 268 267 266 266 266 265 264 263 263 263 264 263 262
287 279 279 281 285 278 279 276 277 284 282 285 286 283 284 286 287 286 287 283 285 284 285 285 285 286 287 287 286 285 284 284 284 285 285 284 285 285 285 285 285 285 284 285 285 284 283 284 284 284 284 282 281 280 281 280 279 280 279 279 282 281 280 280 279 278 276 275 273 271 270 268 267 266 265 264 264 264 264 264 262 262 263 262 263 263
285 282 284 280 286 283 281 284 284 284 285 286 288 286 289 289 288 288 288 287 285 285 285 286 286 286 286 286 286 285 283 284 284 284 284 284 284 284 284 284 284 284 284 284 284 283 282 283 283 283 282 281 279 279 279 280 279 278 278 280 281 280 279 278 276 275 274 273 272 270 268 266 265 264 264 263 264 263 264 262 262 262 263 262 263 264
282 283 282 283 284 288 285 283 284 284 285 286 286 286 287 287 286 286 287 286 286 287 286 286 287 286 285 285 285 285 284 284 284 284 284 284 284 284 285 285 284 285 284 284 283 282 281 282 282 282 281 279 278 278 278 278 279 278 279 280 280 279 277 275 273 273 273 272 271 269 266 265 264 263 263 263 264 264 265 263 262 264 265 263 264 264
282 282 282 280 284 283 279 282 282 284 285 286 285 285 285 285 285 285 285 287 289 287 285 286 287 286 285 285 285 285 285 285 284 284 284 284 284 284 284 284 284 284 283 282 283 281 280 279 280 280 280 280 278 276 276 276 278 279 280 279 279 277 275 273 272 272 271 271 270 267 265 264 264 263 262 262 263 264 265 265 264 265 265 265 265 265
278 283 280 281 281 280 279 281 281 281 283 285 287 285 284 286 285 284 285 284 285 286 286 286 285 284 285 284 284 284 285 285 284 284 284 284 284 284 284 284 284 283 284 284 283 281 279 279 279 279 279 279 280 277 275 276 276 277 278 276 276 274 273 272 271 272 271 270 269 267 264 265 264 263 263 262 263 263 264 264 264 264 265 265 265 265
283 283 275 281 279 280 278 280 280 282 282 283 283 283 286 288 287 285 284 283 283 283 283 284 285 284 284 284 285 284 284 284 284 284 284 284 284 284 284 284 284 285 284 283 282 280 279 279 278 279 279 280 281 279 275 275 275 276 276 275 272 271 271 271 270 270 270 269 267 266 265 265 265 264 264 262 262 264 265 264 264 264 265 264 266 266
281 278 281 280 276 277 278 279 280 277 278 282 283 284 285 286 286 284 284 283 283 283 283 283 282 284 284 284 284 284 283 284 284 284 284 284 284 284 284 285 285 284 284 284 282 280 279 279 279 279 279 280 281 280 277 275 274 275 275 273 271 270 270 270 270 269 269 267 267 266 264 265 265 265 265 264 263 263 263 264 266 265 264 264 266 267
280 282 281 278 278 278 282 281 283 284 284 285 285 285 285 285 285 284 283 283 283 284 284 283 283 282 281 281 283 283 283 284 284 285 284 284 284 284 285 284 284 284 283 282 280 279 278 278 278 278 278 279 280 279 278 276 275 273 273 272 270 269 269 269 269 269 269 267 267 267 265 265 265 264 265 265 264 263 263 263 264 268 268 268 266 267
Wind_Speed
5 8 8 9 12 11 11 14 14 13 6 4 4 8 10 10 11 9 5 4 4 4 10 12 13 14 14 12 10 9 8 7 7 8 7 6 6 5 5 5 4 4 3 3 2 3 3 4 4 4 3 4 5 6 6 7 7 7 7 8 8 6 5 6 6 6 7 8 8 8 9 9 8 8 9 9 9 9 9 10 10 10 9 9 8 8
3 9 12 15 13 11 10 10 12 9 4 8 9 10 9 8 10 9 1 5 2 3 7 9 10 12 14 13 7 9 9 10 10 10 9 8 7 6 6 6 5 4 4 3 4 3 3 4 4 3 3 4 5 6 6 7 6 7 7 8 7 7 7 7 7 6 7 7 7 7 8 8 8 8 8 9 9 9 9 10 10 10 10 10 9 8
7 12 13 14 8 3 1 3 6 8 9 8 9 8 8 9 8 10 4 5 3 3 8 9 12 12 11 12 8 11 10 7 8 8 8 8 7 6 6 6 6 5 5 5 4 4 4 4 4 3 3 4 5 5 6 6 6 7 7 7 7 7 6 7 7 7 8 8 8 9 9 9 9 9 9 9 9 9 10 11 11 10 10 10 10 11
10 11 16 11 5 6 4 5 6 7 9 8 8 8 9 6 6 6 6 1 4 4 4 5 10 11 14 15 8 5 6 5 3 2 3 4 6 7 7 6 6 6 6 6 5 5 5 4 4 3 4 4 4 4 4 5 5 5 6 7 7 7 8 8 8 9 10 11 11 11 11 10 10 9 9 11 10 10 11 12 11 11 10 11 11 12
13 2 1 11 7 9 10 7 8 8 9 9 11 9 8 10 8 8 3 2 4 9 6 9 11 12 13 15 7 5 4 4 5 5 4 3 2 2 3 2 3 6 6 5 6 5 5 5 4 4 4 4 4 4 4 4 4 4 6 7 8 8 9 8 9 10 10 11 12 11 12 11 11 10 9 9 10 9 9 10 10 10 11 11 11 11
17 3 2 8 8 9 9 9 10 8 9 10 13 12 12 10 11 9 7 6 8 10 7 7 7 8 4 10 10 8 5 6 7 8 8 7 6 5 5 6 4 2 2 4 5 5 5 5 5 5 4 4 4 4 4 4 5 6 7 8 8 8 7 7 7 8 8 8 9 7 7 8 8 9 8 8 8 8 9 9 8 10 10 10 10 10
6 6 7 9 8 8 10 10 9 11 10 9 6 12 12 11 10 8 8 0 7 6 3 2 6 7 2 5 7 7 7 8 8 8 9 8 8 7 6 6 6 6 5 3 4 5 6 5 5 5 4 4 5 4 4 4 6 6 7 7 7 7 7 6 6 5 5 6 6 8 9 9 9 9 8 8 8 8 8 8 9 9 9 10 10 10
7 7 5 5 8 8 9 10 10 12 8 9 5 2 3 6 7 8 7 8 9 5 2 5 6 9 9 7 5 8 8 9 10 10 10 9 9 10 8 8 8 7 7 7 7 6 6 5 5 5 5 4 5 4 4 5 5 7 7 7 7 7 7 6 6 7 7 9 9 10 10 9 10 10 10 9 8 8 8 8 9 8 8 9 9 9
11 10 10 10 10 9 11 11 6 12 9 2 2 2 2 3 5 6 6 7 6 5 8 7 8 5 8 7 6 7 6 9 11 11 12 11 11 11 10 9 9 8 8 8 8 8 7 6 5 5 5 5 5 4 4 5 5 6 6 7 8 8 7 7 8 9 9 9 10 10 9 11 9 10 9 8 7 8 7 9 8 8 8 8 9 9
2 3 9 13 10 11 5 7 3 9 11 3 4 6 5 3 1 4 5 5 5 5 11 8 10 7 11 5 6 3 5 8 9 11 12 14 13 12 10 10 10 8 8 7 8 7 6 6 5 5 6 6 5 4 5 5 5 5 6 8 9 9 7 8 9 10 10 10 9 10 10 12 10 9 8 7 8 8 7 8 8 7 7 7 7 8
2 1 3 3 9 3 7 6 6 5 5 9 7 5 5 4 3 3 3 4 4 12 11 11 12 10 7 4 7 6 5 5 6 7 8 11 12 11 10 11 10 9 9 7 7 7 7 6 6 5 6 6 5 4 4 5 5 6 7 8 9 8 8 8 9 10 10 10 9 9 10 11 11 10 9 9 8 7 7 7 7 7 7 7 7 7
3 4 3 2 5 5 6 6 6 2 4 7 4 5 4 2 3 5 3 3 7 12 3 3 11 14 10 3 5 5 5 4 6 9 13 14 13 11 10 10 10 9 9 9 8 7 7 7 6 6 7 7 6 5 5 5 5 6 7 8 10 9 9 9 9 10 10 9 10 10 10 11 10 9 8 9 9 8 8 7 7 6 6 6 6 6
8 8 4 5 3 6 6 6 3 3 3 5 6 7 5 4 2 5 5 8 10 9 2 1 5 3 14 11 3 4 5 4 4 4 12 13 13 12 10 11 10 9 10 9 8 8 8 7 8 7 7 7 7 6 6 6 6 7 8 9 10 10 9 9 9 10 10 10 9 9 10 10 9 9 9 9 8 7 7 6 7 6 6 5 6 6
5 7 11 7 4 8 10 10 7 4 8 10 11 8 8 8 9 9 7 6 6 2 2 3 4 7 5 9 14 3 8 6 4 5 8 12 13 12 11 11 10 9 10 9 9 8 8 8 7 7 8 7 6 7 7 7 6 6 7 9 10 10 9 9 10 10 11 10 10 9 9 9 8 8 8 7 8 7 6 6 7 6 6 6 6 6
6 4 11 13 8 13 14 14 12 7 12 12 9 10 9 8 5 8 7 11 5 0 4 1 3 4 5 3 4 6 4 5 5 4 6 10 11 11 11 10 10 11 9 9 9 9 9 9 9 8 7 7 7 7 7 6 7 7 8 9 10 11 10 10 10 9 10 9 9 8 8 8 7 7 7 7 7 7 7 6 7 6 6 6 5 5
14 8 5 12 3 17 14 9 3 8 7 9 8 5 9 11 4 7 1 3 2 1 4 5 5 3 4 4 5 4 5 4 5 6 7 10 11 12 11 11 11 10 10 10 10 10 10 10 10 8 8 7 7 8 6 7 7 7 8 9 9 10 10 9 10 9 9 9 8 9 9 8 8 7 7 7 6 6 6 7 7 7 6 6 5 5
4 8 6 4 0 11 12 6 7 8 8 9 7 8 8 5 1 0 1 1 0 2 9 6 5 7 1 3 6 6 5 6 4 6 8 10 11 11 10 11 11 11 11 11 10 10 12 10 10 8 9 8 8 8 8 7 7 8 9 9 10 10 9 10 9 9 9 9 9 9 8 7 7 8 8 7 8 7 7 7 6 6 6 6 5 4
4 3 1 7 6 1 5 5 3 3 3 9 7 8 5 2 4 1 7 3 3 9 6 8 9 7 7 6 6 7 6 8 7 7 8 10 11 12 10 11 12 12 11 11 10 10 11 10 11 9 8 9 9 9 9 9 8 8 8 10 11 10 11 9 9 9 9 9 9 8 8 8 7 7 8 7 7 6 6 6 6 5 5 5 4 4
7 6 5 2 3 4 2 2 3 1 4 3 2 5 8 6 6 9 2 9 9 9 6 8 12 11 10 7 5 7 9 11 11 9 9 11 12 12 12 12 12 11 10 11 12 11 11 11 11 10 10 10 9 9 9 8 8 8 8 9 9 11 10 10 8 8 8 7 6 6 7 7 7 7 7 6 7 6 6 6 6 6 5 5 4 4
5 8 3 1 3 5 5 8 10 10 3 2 1 5 1 2 7 8 9 2 2 9 5 3 4 6 8 9 11 13 13 12 11 11 12 13 13 12 12 13 14 14 13 13 13 12 11 11 11 11 11 11 11 10 9 9 7 9 9 10 10 9 9 9 9 8 8 7 7 7 7 7 7 7 6 6 6 6 6 6 6 6 6 5 4 4
4 2 7 5 1 8 6 10 12 14 13 7 6 9 5 3 3 4 2 6 5 5 7 8 7 3 5 4 8 10 12 12 14 13 12 12 13 13 13 14 15 15 14 14 13 12 12 12 12 11 10 10 9 8 8 8 9 9 9 9 10 11 10 10 9 8 8 7 7 8 8 7 7 7 6 7 7 7 6 5 5 5 5 4 4 4
3 7 9 6 6 9 5 4 5 5 13 13 14 15 15 11 8 7 8 3 2 2 5 5 11 1 3 4 6 8 6 7 9 8 10 11 13 13 13 15 14 13 13 12 12 11 11 11 11 10 9 8 8 8 9 8 9 9 9 9 10 9 9 9 9 8 8 7 7 8 8 7 6 6 6 7 6 6 5 5 5 4 4 5 4 4
6 2 5 6 8 9 2 3 2 3 5 6 10 10 10 8 7 7 10 5 1 4 2 1 5 4 3 3 4 5 5 6 5 8 7 9 11 12 11 11 11 11 12 12 11 10 9 10 10 10 11 10 10 9 9 9 9 9 10 10 9 9 9 8 8 8 7 7 7 8 7 7 6 6 7 7 6 6 5 5 5 4 4 4 3 3
8 3 7 4 5 4 3 3 1 1 3 4 5 2 6 14 14 8 3 2 6 3 3 4 7 3 2 4 3 3 4 3 1 3 6 6 7 10 11 11 12 12 11 10 9 9 9 10 10 10 11 11 10 10 10 9 9 9 9 9 9 10 10 9 8 7 7 7 8 8 8 7 7 7 7 6 5 6 5 4 4 3 3 3 2 3
7 6 6 6 2 3 4 3 4 3 4 6 8 10 9 6 5 2 3 1 3 8 5 7 13 2 2 1 1 2 3 3 4 3 3 7 7 8 9 9 10 11 10 12 11 11 11 11 12 11 11 11 11 10 10 9 9 10 9 9 10 9 10 9 8 8 8 8 9 8 7 8 7 7 7 6 5 6 5 4 3 2 2 3 3 3
6 5 12 15 15 13 11 15 16 13 13 9 4 6 9 12 9 5 7 5 8 5 9 9 10 2 2 2 2 2 2 2 4 4 4 4 7 8 9 10 11 12 11 12 12 12 12 11 10 10 11 10 10 10 11 10 10 10 10 10 9 10 9 9 8 8 8 8 8 8 8 7 7 7 7 6 6 6 4 4 3 3 3 2 3 3
3 1 9 12 9 8 4 2 6 12 9 10 11 12 12 10 9 6 1 5 12 3 9 13 5 1 6 6 4 2 2 6 5 6 7 7 7 7 9 10 10 10 11 14 12 8 8 9 11 11 10 9 10 10 10 10 11 10 10 11 10 9 9 8 8 7 6 6 7 7 8 7 7 7 7 6 5 5 4 4 4 3 3 2 2 3
1 6 11 10 1 2 2 1 4 17 13 11 11 14 11 11 10 12 12 10 5 1 13 6 8 12 10 9 9 8 8 7 6 7 7 7 9 10 10 10 11 10 9 9 9 11 12 12 10 11 12 12 11 10 10 11 11 11 11 11 9 9 8 7 9 9 9 8 7 7 8 7 7 7 6 6 5 5 5 4 4 3 2 2 3 3
3 9 8 7 9 5 2 1 3 1 7 9 13 12 14 13 12 16 16 10 8 10 11 7 15 13 12 11 12 11 10 10 10 6 8 8 8 8 9 10 11 11 12 13 13 14 16 16 16 17 16 15 13 13 13 12 12 10 10 9 9 10 10 10 10 10 9 9 8 8 8 8 7 6 6 6 6 5 5 4 4 3 3 2 3 2
2 6 4 6 9 4 3 3 1 1 1 1 7 13 14 14 16 15 13 14 15 12 12 9 8 13 10 9 10 8 4 5 5 6 6 7 9 10 10 10 11 12 14 15 14 15 18 18 16 12 11 13 15 16 15 13 12 11 11 11 10 10 9 9 8 9 8 7 7 7 7 7 7 7 7 6 6 6 5 4 4 3 3 3 4 4
4 3 6 3 6 6 4 3 3 2 4 7 8 10 13 13 12 14 15 17 15 14 15 8 10 17 9 7 5 4 4 4 5 6 8 7 8 9 10 10 11 12 12 11 7 10 10 10 9 10 13 14 16 16 15 12 11 11 12 12 11 9 7 7 8 8 9 9 8 8 8 7 7 8 8 7 6 4 4 5 4 3 3 3 3 5
3 2 2 2 6 4 1 3 3 2 1 4 12 17 16 12 11 13 12 9 10 16 11 6 12 15 5 9 6 6 5 7 10 10 8 7 8 9 10 10 11 11 12 12 11 11 11 11 12 12 14 15 14 15 14 14 13 14 14 13 11 8 8 8 8 9 8 9 8 9 8 7 8 8 7 7 5 5 4 4 4 4 4 4 4 5
4 5 6 5 5 2 2 1 4 4 1 7 18 17 11 11 9 10 9 12 15 13 7 12 14 7 6 7 7 6 9 10 10 10 8 7 9 11 11 10 10 9 11 12 13 13 12 12 12 13 12 12 13 14 16 15 13 14 14 13 10 8 9 9 9 9 10 9 10 7 7 7 7 5 5 5 5 5 4 4 5 5 5 5 5 4
5 5 4 2 3 2 1 5 5 4 8 12 3 9 18 17 19 16 13 15 13 13 12 11 8 4 5 8 10 10 10 11 11 8 7 9 9 9 8 8 8 9 8 8 8 9 10 9 9 11 14 15 15 16 15 14 14 12 13 13 11 11 11 11 10 9 8 10 9 7 7 7 6 6 6 6 6 5 5 6 6 5 4 4 5 5
7 4 4 2 3 3 5 6 5 10 13 1 1 4 3 13 13 15 16 16 14 13 12 14 14 12 7 9 10 10 9 5 3 4 5 4 7 7 9 8 7 7 7 7 8 8 9 10 10 10 11 12 12 11 11 11 12 11 9 9 12 10 11 10 10 9 9 10 7 8 6 7 6 6 6 6 6 6 6 6 5 6 5 5 6 5
5 6 3 2 3 3 3 7 6 7 3 3 4 2 2 4 2 7 10 14 14 14 15 16 17 14 9 7 3 5 4 4 2 2 2 3 5 7 7 6 6 6 7 7 8 8 8 9 10 10 9 7 8 9 10 12 12 13 11 7 8 8 8 10 10 9 9 12 9 9 8 9 7 6 6 7 7 7 7 7 6 6 6 5 4 3
6 2 4 4 3 5 4 8 9 8 12 6 5 4 8 6 6 9 8 13 12 11 11 14 15 13 6 7 6 5 4 2 2 5 7 8 6 4 4 4 5 5 5 4 4 4 4 4 4 4 5 6 8 10 11 10 10 10 8 9 8 8 7 9 8 9 12 11 12 12 11 8 8 8 8 8 8 7 7 7 6 6 5 4 4 4
0 7 2 4 4 5 3 3 3 6 11 11 1 4 7 4 5 5 5 13 5 8 12 13 15 12 8 7 7 7 4 2 7 8 8 9 8 6 4 4 5 5 5 5 5 5 5 4 3 4 5 7 8 8 7 8 9 10 10 9 8 10 10 9 10 10 11 10 12 14 8 8 9 10 8 8 8 8 7 6 4 5 5 5 4 4
3 4 1 6 3 6 7 9 8 8 9 3 6 8 7 3 7 4 3 11 4 9 13 13 15 11 10 9 9 8 4 5 8 7 4 9 9 9 8 6 5 5 5 5 5 5 5 4 5 5 5 6 7 7 6 8 9 10 11 8 8 8 9 10 12 11 12 12 10 9 9 7 7 7 8 8 8 7 8 6 5 5 4 3 2 3
2 3 4 5 8 8 6 7 11 4 7 2 2 2 4 5 7 5 2 6 2 10 9 10 10 6 8 9 10 7 6 8 9 4 5 5 6 6 7 7 6 6 6 5 4 4 5 6 6 5 6 7 7 7 8 7 11 10 11 9 8 11 9 11 17 13 8 8 8 8 7 8 12 11 12 11 8 6 5 4 4 4 4 3 3 3
4 3 7 11 10 13 13 9 4 6 2 4 5 6 5 2 4 8 10 1 1 1 1 2 4 5 8 9 9 7 9 2 3 6 6 7 7 5 5 5 5 6 7 6 5 6 5 5 5 5 6 5 6 6 6 7 8 9 10 10 10 14 13 11 7 8 7 9 8 10 10 8 11 12 10 8 8 6 5 4 5 5 4 3 3 3
4 3 2 3 8 13 11 11 11 7 3 6 1 4 6 8 6 10 1 2 7 4 2 4 5 6 6 8 8 6 2 5 4 5 6 5 6 6 7 6 6 6 6 5 6 6 5 4 5 4 4 4 5 5 5 8 9 8 9 8 13 15 9 6 8 11 9 12 11 11 10 10 9 8 8 7 7 6 5 3 3 4 4 3 3 3
9 8 7 9 3 1 3 11 8 11 2 8 12 5 5 4 2 5 5 2 3 2 5 3 5 5 7 6 6 4 5 4 5 5 5 5 6 7 7 6 6 6 7 6 5 5 5 5 6 6 6 4 5 5 4 8 9 8 8 11 16 8 7 12 11 10 10 10 10 10 10 8 9 9 7 7 7 8 5 4 4 3 3 2 3 3
7 5 4 4 6 5 9 9 8 1 6 11 15 8 7 3 2 4 4 4 1 2 4 4 3 5 7 7 6 5 6 6 4 4 4 4 5 5 5 4 4 3 3 3 4 6 4 4 4 5 5 4 4 3 5 9 10 8 10 14 13 7 7 7 8 8 9 9 9 9 8 8 8 7 7 7 6 5 5 5 5 4 4 4 4 4
10 8 1 3 8 8 7 5 2 2 8 9 1 5 6 6 2 2 4 3 5 3 3 2 5 5 7 5 5 6 6 5 6 6 6 6 5 5 6 6 6 6 5 5 4 4 3 6 4 4 4 4 4 3 6 7 9 9 12 14 7 7 8 8 8 9 10 10 10 10 8 8 7 8 6 6 6 6 5 5 6 5 5 4 4 3
5 1 3 1 3 4 2 4 2 1 7 8 4 2 3 5 1 2 3 4 3 3 5 4 4 5 5 5 6 5 6 6 6 5 4 5 6 5 5 4 4 4 5 4 3 6 4 3 2 4 5 4 5 5 7 8 8 12 16 6 5 6 7 8 10 10 12 10 9 10 10 11 8 6 4 6 5 5 5 6 6 5 5 5 4 4
4 4 1 2 2 4 6 6 5 6 5 6 4 2 3 3 2 2 2 1 2 3 4 2 1 4 5 6 6 6 6 7 7 6 6 5 6 7 7 8 7 8 8 7 9 6 5 5 5 6 6 7 6 7 7 10 10 12 7 4 5 6 7 9 10 10 9 10 9 9 11 11 7 6 5 5 5 5 4 5 6 6 5 5 5 4
3 8 2 5 5 6 0 5 3 5 3 2 0 2 1 2 0 1 2 3 3 1 1 2 3 4 5 3 5 5 4 5 7 7 7 7 7 7 7 9 9 7 7 9 7 6 4 5 7 8 8 9 8 9 9 10 12 12 8 4 5 6 8 9 10 12 12 11 10 7 7 6 9 8 5 6 6 6 6 5 5 6 6 6 6 5
4 10 3 5 4 2 4 1 2 4 4 4 3 4 2 2 4 3 3 1 1 0 1 1 0 2 4 4 5 5 4 3 4 5 6 6 6 6 8 8 8 9 8 5 5 8 9 9 9 10 9 10 9 8 9 11 11 10 10 7 5 7 9 10 10 9 7 8 7 6 6 5 6 6 6 5 5 4 4 5 6 5 3 3 2 3
3 5 4 5 2 6 7 7 8 4 2 4 6 9 9 7 4 4 3 4 4 5 3 3 3 2 2 2 4 5 3 4 5 5 7 6 6 7 7 6 7 7 5 5 4 6 7 8 9 9 9 9 6 6 8 10 11 9 8 6 6 7 9 9 7 7 8 7 5 5 6 6 6 5 5 6 6 5 2 3 6 5 4 2 6 9
9 8 8 6 6 3 5 10 10 5 3 2 8 9 8 5 7 6 7 8 8 7 6 5 4 4 4 4 4 5 6 6 7 7 7 6 6 5 6 7 7 7 7 4 4 5 8 9 7 6 7 8 4 6 7 8 8 7 7 7 7 8 8 7 6 4 4 6 6 8 7 6 5 5 4 4 5 5 4 3 5 11 12 9 7 8
Wind_Direction
168 211 213 215 230 233 223 223 232 255 301 307 294 278 271 275 272 274 148 127 124 270 252 257 261 264 264 261 178 175 174 193 187 189 180 180 178 176 176 170 161 153 116 95 84 68 57 57 50 55 37 49 47 35 45 56 46 45 69 71 62 63 58 66 71 70 75 78 78 72 71 74 68 64 66 62 55 53 51 51 51 51 47 38 33 37
189 228 229 232 240 254 260 227 234 244 260 269 276 271 267 253 264 274 294 128 148 243 271 270 265 256 267 269 193 163 174 196 196 196 190 180 179 177 177 170 173 140 123 148 128 109 96 69 70 64 57 50 66 39 43 52 56 61 59 62 67 63 60 56 56 63 65 62 70 83 77 81 70 64 62 62 55 55 52 48 48 48 45 44 42 37
208 225 231 235 241 135 40 241 247 252 255 246 256 258 260 256 267 267 162 142 170 173 270 264 267 267 263 266 171 184 191 200 193 194 192 181 178 179 178 174 165 160 155 153 128 121 108 97 85 82 59 61 62 57 53 55 65 59 60 58 60 61 63 61 66 73 76 76 74 83 86 86 85 71 70 72 67 60 58 50 46 44 43 41 42 40
240 236 231 236 180 199 196 215 227 239 243 248 234 235 239 259 253 256 127 178 169 242 316 326 286 275 270 264 193 179 188 132 127 154 149 183 186 186 181 175 175 169 163 160 152 136 120 116 114 95 82 75 74 75 58 61 64 66 69 75 76 73 70 70 65 76 82 85 87 84 89 85 85 88 79 76 69 62 57 53 47 44 42 43 44 39
231 350 228 187 192 216 232 204 213 221 240 221 233 243 246 239 234 243 293 142 194 238 242 272 273 268 250 244 176 152 124 153 168 181 186 194 200 124 102 123 186 174 167 154 145 136 138 130 114 101 94 94 85 74 68 63 79 82 82 83 86 84 84 84 87 91 97 97 93 93 97 97 96 91 84 78 68 64 61 60 50 46 45 45 46 43
248 179 156 174 198 216 223 220 207 219 244 245 219 223 243 255 264 268 274 321 291 284 183 229 296 276 237 227 209 142 174 198 182 188 196 184 182 177 187 182 163 125 139 157 144 138 131 126 118 109 104 96 99 83 64 69 87 93 92 92 94 94 91 92 96 105 105 104 111 117 111 107 95 85 77 72 76 71 65 63 63 55 50 52 50 48
260 124 187 176 175 204 215 229 208 203 245 251 264 194 234 251 267 270 269 144 273 271 83 264 244 280 150 195 185 157 180 187 166 202 190 178 178 180 185 173 174 173 163 131 128 139 138 132 125 118 98 93 87 74 71 79 82 88 89 88 91 91 87 82 88 109 117 97 86 86 90 95 97 96 84 86 82 83 79 74 67 64 54 49 52 47
132 168 150 171 192 202 216 223 210 204 232 246 51 163 196 243 243 244 238 237 260 297 190 199 246 275 276 266 146 164 188 185 182 193 190 181 178 181 177 173 169 167 163 159 155 148 138 134 134 116 104 96 86 80 76 74 74 79 84 87 87 85 85 81 84 84 92 99 94 95 94 91 93 94 97 92 87 86 86 82 76 71 62 54 51 51
174 176 179 196 201 210 222 231 206 193 221 261 66 65 196 247 261 247 242 246 254 301 265 191 208 263 265 236 156 173 213 215 209 187 188 183 181 178 175 170 166 165 159 160 157 155 149 139 123 120 109 97 90 77 79 81 81 83 85 88 88 88 86 84 84 86 88 94 98 100 102 99 95 99 99 100 98 93 88 85 80 74 70 63 54 50
1 186 195 203 197 219 173 57 54 178 224 117 122 78 78 87 106 235 230 239 248 242 249 232 192 249 268 234 183 177 256 241 211 187 184 183 177 175 171 165 163 156 155 156 151 143 134 128 114 108 109 103 89 88 90 89 92 92 93 95 93 91 89 91 91 90 91 93 98 99 104 107 109 108 107 102 98 95 89 84 79 71 68 63 60 54
116 136 13 253 220 237 90 67 39 42 64 132 139 125 119 133 170 183 233 251 266 245 249 230 217 216 284 259 198 197 214 218 148 162 172 167 166 167 166 163 162 159 156 153 145 140 130 122 128 128 123 112 108 108 104 100 103 103 105 103 97 95 96 95 93 94 94 95 98 103 105 106 108 107 110 110 101 100 94 87 83 79 72 67 64 57
172 111 178 197 69 105 116 86 52 26 138 161 158 176 162 189 188 222 222 216 243 261 234 218 234 203 231 229 211 75 72 96 142 170 168 166 167 164 160 161 160 158 155 152 148 143 141 138 132 135 130 132 128 126 120 115 115 115 115 113 107 102 101 99 98 97 95 97 99 101 103 103 106 108 107 105 102 98 96 93 91 87 81 72 67 61
221 201 167 106 285 165 157 146 96 125 171 209 181 180 193 226 159 224 196 216 217 247 103 28 74 205 238 252 55 117 136 110 50 147 167 162 161 157 155 155 157 155 152 157 156 152 156 154 152 151 142 137 141 139 135 130 124 123 123 122 116 109 107 103 103 101 103 101 99 101 101 98 99 100 100 100 100 95 90 87 85 84 81 73 64 54
238 189 183 171 115 220 186 187 158 177 194 189 193 181 197 227 226 245 230 232 252 98 288 89 205 249 299 243 251 217 97 86 89 55 147 157 156 152 153 153 155 156 160 160 158 159 159 158 159 155 151 149 145 144 140 137 133 130 129 126 119 114 112 113 110 108 105 99 100 99 100 102 101 99 96 93 91 89 86 86 85 83 82 77 69 62
219 215 213 162 220 167 203 214 191 191 168 198 196 193 201 209 227 239 219 227 239 233 100 249 147 238 175 189 59 89 84 94 79 84 110 142 140 142 148 151 154 161 164 163 162 166 164 162 160 158 158 151 149 149 145 141 140 135 131 130 126 121 119 119 115 111 105 104 100 99 97 101 101 98 97 91 89 91 91 88 90 84 79 80 75 66
219 251 77 170 4 158 193 201 234 176 164 190 198 220 229 227 271 257 20 342 63 201 172 172 229 244 227 112 108 110 126 99 117 112 130 133 140 142 151 160 166 170 168 168 168 167 166 164 163 161 160 155 154 153 149 149 144 140 136 134 130 127 126 122 117 111 107 102 99 95 94 94 95 97 98 96 91 90 89 90 90 86 82 85 85 74
164 230 110 109 180 180 188 164 183 170 200 171 162 209 193 25 178 79 155 116 294 314 255 159 231 244 204 172 148 154 148 150 145 144 151 151 147 153 162 169 172 175 174 174 174 171 169 166 167 165 161 159 158 159 161 155 150 146 140 137 132 128 123 118 114 108 106 106 104 102 100 100 98 96 96 98 98 93 88 88 84 85 85 81 78 79
201 170 85 157 193 32 19 323 160 17 353 117 211 195 81 42 2 241 253 188 216 255 261 160 210 223 181 237 132 158 179 171 178 168 170 161 160 165 175 177 178 178 176 174 173 172 172 170 168 166 165 164 165 164 160 155 150 145 145 143 136 134 128 124 120 116 116 113 108 106 104 100 99 98 100 100 100 96 98 97 95 95 91 82 84 87
205 253 150 188 84 90 359 125 170 173 353 248 240 111 154 198 217 212 231 249 242 240 260 215 214 233 213 213 143 189 191 188 183 170 173 175 178 180 179 182 180 173 172 175 180 178 177 174 173 170 167 166 166 164 158 154 148 148 146 144 140 135 133 129 125 123 119 116 113 112 110 108 104 100 99 98 99 100 98 92 93 97 99 104 97 90
173 234 170 264 172 143 166 188 198 184 186 290 196 214 223 324 220 189 200 288 245 248 232 257 132 246 198 227 175 195 195 183 166 172 192 191 185 181 180 180 180 181 183 182 183 183 179 175 172 170 168 168 166 164 161 154 150 152 148 146 140 134 133 130 131 131 127 122 122 118 112 107 105 104 106 108 105 101 97 100 105 104 97 92 90 84
217 121 257 113 87 140 197 194 209 177 179 174 200 204 166 213 23 325 271 214 223 246 244 270 257 229 195 202 201 198 187 169 170 182 186 190 190 188 184 182 184 186 185 185 183 179 176 172 170 168 168 164 161 161 157 159 159 155 152 150 147 145 143 141 138 135 130 129 126 126 121 118 112 105 102 100 98 99 98 96 93 90 95 91 81 77
203 169 218 131 187 207 221 170 239 226 195 190 186 199 187 177 183 194 230 112 235 201 247 240 256 283 97 37 40 52 41 147 172 176 177 184 183 186 190 191 188 187 189 182 178 175 169 167 164 163 160 159 161 165 164 161 164 159 159 155 152 149 149 145 143 139 138 136 134 128 122 115 110 104 100 101 99 96 98 96 87 91 94 91 82 77
216 183 204 180 206 202 238 8 334 322 325 232 213 212 193 207 189 201 218 182 112 244 29 290 327 256 78 23 58 57 57 53 89 158 172 183 185 189 191 190 188 191 184 178 171 165 162 160 163 162 164 165 167 166 166 168 171 166 163 158 160 157 155 150 145 143 141 137 133 128 122 119 114 113 111 106 102 96 95 88 85 83 94 95 96 86
64 192 182 175 104 91 117 143 58 346 277 271 265 298 194 205 198 211 237 126 195 165 182 217 238 269 67 34 30 73 72 60 44 125 162 165 182 185 183 182 185 179 178 167 160 155 154 158 159 159 167 169 172 171 174 174 172 170 168 164 163 163 157 151 147 146 143 139 134 131 126 122 123 121 117 108 102 105 100 97 97 92 93 102 110 112
164 203 196 173 183 177 207 184 223 173 209 235 211 205 223 212 149 87 91 88 257 209 177 202 246 174 165 96 46 77 99 132 134 160 171 154 157 171 180 177 179 175 164 160 156 156 156 161 167 172 172 173 172 171 174 177 180 175 173 170 170 164 158 152 153 152 149 144 138 136 132 131 132 126 121 116 118 118 114 115 114 117 135 142 139 139
216 162 178 201 197 197 199 207 210 191 192 196 231 199 192 211 160 146 217 188 234 197 166 218 237 81 103 116 214 154 165 160 139 136 159 188 166 168 174 175 183 176 167 159 154 157 166 169 168 171 175 173 173 174 178 181 181 181 178 178 173 164 160 160 157 157 151 149 143 141 140 139 134 132 128 126 129 130 131 133 143 150 155 151 150 146
198 345 215 216 214 227 246 37 74 115 135 197 186 185 200 203 200 199 285 212 218 131 195 223 221 169 192 197 211 208 208 198 169 171 174 172 178 174 175 180 179 178 171 166 159 146 138 158 174 175 173 178 178 178 179 179 182 184 181 178 175 167 161 157 155 151 145 145 144 145 145 143 141 137 135 137 136 136 143 152 153 158 155 155 160 165
41 215 223 228 197 110 48 300 169 153 176 186 164 196 187 187 182 195 204 219 111 79 251 198 171 234 211 183 203 198 200 211 209 175 173 181 189 185 179 177 176 162 154 144 148 159 172 177 178 185 191 185 184 180 181 182 186 184 183 178 165 156 152 155 159 162 163 159 153 148 147 140 135 134 138 139 138 143 149 150 153 153 144 160 178 174
190 220 217 209 227 103 32 3 329 175 177 181 184 180 192 193 186 199 217 221 162 209 239 130 182 215 226 209 196 198 179 195 202 178 186 185 169 169 170 177 183 178 167 170 178 184 189 190 194 195 191 188 180 183 185 185 184 179 178 172 167 170 172 170 169 168 163 162 158 154 149 143 138 137 133 135 142 150 156 157 153 152 162 187 195 191
116 248 218 201 228 202 166 146 294 227 13 295 212 206 202 193 198 200 210 212 213 232 237 238 199 228 225 220 187 205 174 152 138 137 135 148 166 166 171 181 192 192 185 189 190 192 197 198 197 188 175 181 186 187 187 184 178 176 172 169 171 175 176 169 170 162 158 155 152 145 143 138 135 141 141 146 154 162 160 158 158 169 184 197 205 205
174 232 154 174 209 222 150 111 100 121 215 246 254 241 226 216 198 198 211 217 222 241 246 245 263 260 228 181 152 70 95 88 105 157 180 171 160 167 176 188 191 192 199 201 200 202 201 197 184 180 182 188 189 189 187 184 179 176 176 176 174 178 163 160 164 166 161 162 153 147 148 145 150 148 150 153 156 159 160 163 166 181 197 201 208 210
150 204 45 163 199 192 26 137 95 68 31 264 264 248 229 210 189 197 210 203 199 225 230 228 244 249 129 139 111 140 140 167 183 188 183 174 169 171 188 196 195 193 196 198 199 198 197 190 184 181 184 187 186 188 190 191 184 178 180 180 176 168 158 168 171 165 161 156 146 154 153 153 150 149 152 151 160 159 159 164 174 189 196 204 207 213
175 157 161 179 176 199 16 174 130 95 40 285 245 234 215 216 206 202 209 214 217 218 222 224 231 217 127 146 162 180 184 198 200 192 181 168 181 187 193 195 194 191 192 193 193 195 197 195 193 189 188 189 191 193 195 187 180 182 180 177 165 142 167 178 177 170 165 138 148 150 148 146 149 149 150 153 154 151 155 169 185 194 196 209 209 207
152 166 144 158 168 128 3 129 128 154 214 226 16 147 176 206 214 214 218 216 213 198 222 233 252 255 138 172 184 196 193 201 203 200 174 174 175 187 195 190 182 181 183 182 181 184 188 189 193 194 192 193 194 193 189 186 187 182 178 176 156 162 175 176 181 167 153 142 150 146 144 145 150 157 156 150 149 155 165 183 197 194 197 202 207 210
165 172 168 126 178 134 137 131 169 216 229 58 271 20 204 209 208 210 226 229 227 224 237 252 252 248 197 194 211 213 208 184 106 159 136 132 160 176 187 187 183 179 168 159 166 179 185 188 188 191 193 196 191 186 186 193 193 180 166 158 160 169 168 175 168 166 160 158 149 138 139 155 160 156 155 152 155 165 179 190 193 189 197 198 206 199
174 174 138 170 132 77 131 181 219 223 30 121 74 98 19 67 171 194 238 243 235 221 217 231 239 243 223 198 153 55 62 62 55 22 132 166 199 188 175 182 182 166 162 171 176 180 181 185 189 192 195 181 174 183 189 193 187 186 184 148 157 158 160 166 165 163 149 156 157 156 163 155 158 157 154 156 163 171 187 191 191 188 199 199 198 189
171 136 182 172 173 179 184 199 233 346 322 245 136 189 156 163 166 173 224 243 224 215 206 227 239 234 159 174 117 96 76 80 262 236 186 205 192 198 179 176 161 157 147 131 138 145 150 159 167 175 163 172 181 188 196 192 181 176 136 138 156 145 149 162 167 173 171 173 166 170 180 171 161 162 160 163 165 178 188 187 187 193 193 189 192 179
221 195 191 199 204 159 181 214 248 243 245 258 156 123 177 168 155 172 199 265 227 192 201 216 232 226 198 125 124 125 122 132 246 242 198 187 167 186 164 97 91 100 110 113 105 106 116 126 134 157 173 178 183 184 180 169 161 158 126 143 144 154 170 162 183 180 179 181 179 179 167 170 165 159 160 165 174 176 184 180 182 190 191 181 185 179
33 49 40 204 235 154 196 222 222 226 242 96 130 142 167 94 136 133 205 263 230 172 196 204 221 212 174 143 142 138 146 217 239 243 155 161 179 180 161 162 140 132 128 134 143 143 147 143 148 153 161 177 182 183 155 143 153 153 152 153 154 158 167 182 190 185 186 188 177 171 170 167 158 161 160 168 174 171 175 175 179 174 170 178 171 169
133 182 165 213 220 216 208 221 231 217 270 125 130 98 91 140 118 126 245 273 138 177 197 197 211 198 159 136 141 162 171 217 234 236 128 160 154 155 158 153 149 141 136 137 131 136 136 131 128 147 168 182 183 166 150 150 163 173 172 169 149 162 185 194 200 196 172 158 154 161 164 165 174 172 175 162 158 150 153 154 165 166 167 170 181 181
174 205 202 211 218 227 230 242 279 271 248 120 151 138 138 53 126 177 213 158 202 239 9 171 197 150 134 141 161 182 215 214 61 99 114 116 115 113 94 92 109 135 147 151 149 136 139 154 167 176 184 182 168 150 142 144 166 175 182 164 155 196 203 199 176 164 150 161 149 170 168 162 179 181 181 164 151 138 145 164 170 157 157 166 187 172
193 141 220 219 223 222 222 234 243 277 237 142 142 139 155 136 197 216 206 76 152 178 149 190 167 162 158 168 183 210 124 98 105 95 118 137 139 133 127 120 112 95 86 103 134 150 151 160 176 178 177 177 147 139 143 163 173 183 171 173 197 210 196 160 167 182 177 181 181 181 179 179 176 171 160 147 145 143 150 158 146 146 151 185 177 162
176 175 193 205 192 233 177 238 237 245 151 123 117 60 296 193 255 97 115 55 51 127 139 164 180 157 165 185 195 178 102 105 123 141 132 135 130 133 132 141 146 147 150 145 154 187 165 164 177 187 177 159 138 149 153 168 181 188 186 196 214 194 167 194 190 184 186 184 181 180 177 172 164 163 155 152 148 150 150 144 139 138 160 179 158 166
181 173 204 231 181 195 197 204 213 244 119 175 147 180 194 201 69 144 122 144 165 149 157 158 187 182 187 194 183 168 129 126 133 133 124 105 108 107 120 123 122 115 127 151 152 165 180 175 165 167 167 145 149 154 164 175 186 190 194 215 215 179 191 187 184 177 179 182 182 171 170 165 158 151 142 146 140 144 145 156 149 156 183 185 188 187
204 194 169 212 177 193 213 227 71 163 147 192 346 360 162 157 130 154 129 140 153 209 165 179 197 184 198 182 168 153 145 172 170 168 166 165 153 157 155 173 171 177 177 173 183 153 171 194 186 164 155 156 154 166 176 187 185 196 208 225 193 189 182 177 166 172 182 184 180 175 164 151 144 150 150 149 151 157 161 149 150 173 189 174 198 202
19 169 32 62 230 204 326 98 40 4 171 161 69 2 35 104 60 347 119 131 175 157 170 195 199 157 169 172 152 175 172 179 172 175 183 180 173 176 171 159 170 167 171 158 161 168 192 186 163 178 193 178 171 183 185 193 191 197 220 205 183 181 168 162 167 180 190 184 179 171 156 157 141 143 143 157 169 172 173 162 169 188 185 182 195 190
206 120 206 210 206 199 235 126 150 181 187 174 128 68 348 31 100 15 25 70 154 153 179 215 193 144 158 159 180 180 176 171 183 185 181 187 192 186 182 186 191 187 180 193 200 164 174 182 196 208 209 216 197 191 196 200 210 218 215 176 181 164 165 168 179 187 184 186 173 158 155 158 163 162 157 167 170 178 183 174 177 194 193 183 185 187
237 162 168 223 239 217 336 105 38 8 2 350 92 155 234 243 136 148 25 28 24 54 122 175 107 99 119 155 192 194 197 165 167 181 185 197 196 192 189 197 196 182 198 200 189 166 173 187 207 215 211 225 211 198 200 205 214 217 211 180 159 162 164 178 185 190 191 185 164 155 160 172 167 163 160 177 176 177 183 184 189 193 196 187 185 175
130 123 202 189 192 149 63 308 9 37 337 274 273 291 274 220 196 177 174 223 328 87 177 59 209 164 170 183 173 185 195 200 168 186 196 202 207 207 202 197 192 193 193 190 186 172 193 199 209 217 214 227 216 197 201 214 222 216 208 188 158 162 178 193 195 195 182 167 141 153 156 174 162 176 166 166 180 197 188 181 190 198 204 202 191 195
143 207 147 133 172 213 206 174 159 139 216 208 223 223 226 216 157 151 158 199 205 207 195 191 208 208 186 189 169 174 178 208 207 199 215 223 216 217 225 219 208 209 212 197 179 193 209 215 214 218 222 233 217 198 206 217 224 216 206 180 166 166 186 192 178 182 182 168 165 154 154 177 166 172 167 158 174 179 187 200 205 204 193 198 208 221
200 190 164 180 196 239 143 146 182 193 232 134 193 216 219 154 159 184 200 207 207 197 190 188 195 188 203 219 209 181 194 202 212 206 217 223 225 221 224 233 237 235 224 177 175 201 212 222 223 231 242 245 227 216 217 222 223 208 200 189 179 178 186 171 176 183 181 173 189 179 163 163 160 163 168 160 162 170 180 196 218 224 223 219 207 211